Terminal Aerodrome Forecast
Issued by NWS

Home | Current Version | Previous Version | Text Only | Print | Product List | Glossary On
Versions: 1 2 3 4 5 6 7 8 9 10 11 12 13 14 15 16 17 18 19 20 21 22 23 24 25 26 27 28 29 30 31 32 33 34 35 36 37
000
FTPA31 PHFO 011700
TAFPPG
TAF
NSTU 011731Z 0118/0218 12015KT P6SM SCT025 BKN050
     FM020000 12018KT P6SM VCSH SCT025 BKN050 OVC100=

USA.gov is the U.S. government's official web portal to all federal, state and local government web resources and services.